Regional Weather Roundup
Issued by NWS Sioux Falls, SD

Home | Current Version | Previous Version | Text Only | Print | Product List | Glossary On
Versions: 1 2 3 4 5 6 7 8 9 10 11 12 13 14 15 16 17 18 19 20 21 22 23 24 25 26 27 28 29 30 31 32 33 34 35 36 37 38 39 40 41 42 43 44 45 46 47 48 49 50
000
ASUS43 KFSD 300202
RWRFSD

WEATHER ROUNDUP FOR SE SOUTH DAKOTA/SW MINNESOTA/NW IOWA
NATIONAL WEATHER SERVICE SIOUX FALLS SD
900 PM CDT FRI APR 29 2016

NOTE: "FAIR" INDICATES FEW OR NO CLOUDS BELOW 12,000 FEET WITH NO
SIGNIFICANT WEATHER AND OR OBSTRUCTIONS TO VISIBILITY.


SDZ038>040-050-052>070-300300-
SOUTHEAST SOUTH DAKOTA

CITY           SKY/WX    TMP DP  RH WIND       PRES   REMARKS
BROOKINGS      PTCLDY    46  40  79 E6        30.06S
CHAMBERLAIN    NOT AVBL
HURON          MOCLDY    46  41  82 NE6       30.06S
MADISON        CLOUDY    46  46 100 E10       30.06R
MITCHELL       CLOUDY    49  41  74 NE9       30.05S
SIOUX FALLS    CLOUDY    46  39  76 E8        30.04R
WINNER         CLOUDY    44  38  79 SE9       30.05R
YANKTON        CLOUDY    45  39  81 E7        30.03R
$$

MNZ071-072-080-081-089-090-097-098-300300-
SOUTHWEST MINNESOTA

CITY           SKY/WX    TMP DP  RH WIND       PRES   REMARKS
FAIRMONT       MOCLDY    46  36  66 E8        30.08S
JACKSON        PTCLDY    46  41  81 E9        30.07S
LUVERNE        CLOUDY    45  39  81 E6        30.05S
MARSHALL       CLOUDY    48  40  73 E7        30.09S
MONTEVIDEO     CLOUDY    48  41  76 SE5       30.11S
PIPESTONE      CLOUDY    48  41  76 E7        30.05R
REDWOOD FALLS  CLOUDY    50  38  63 CALM      30.09S
TRACY          CLOUDY    48  42  80 NE6       30.08S
WINDOM         CLOUDY    45  41  87 CALM      30.07S
WORTHINGTON    MOCLDY    46  41  82 E10       30.06S
$$

IAZ001>003-012>014-020>022-031-032-NEZ013-014-SDZ071-300300-
NORTHWEST IOWA

CITY           SKY/WX    TMP DP  RH WIND       PRES   REMARKS
DENISON        CLOUDY    45  41  87 E12       29.99S
ESTHERVILLE    CLOUDY    44  40  85 E9        30.06S
SIOUX CITY     CLOUDY    47  39  74 E12       30.02S
SPENCER        CLOUDY    45  38  76 E12       30.06S
STORM LAKE     CLOUDY    45  41  87 E15G23    30.03S
$$

ABBREVIATIONS USED IN REMARKS
   TC - TEMPERATURE IN CELSIUS
  WCI - WIND CHILL INDEX
   HX - HEAT INDEX
  VSB - VISIBILITY





USA.gov is the U.S. government's official web portal to all federal, state and local government web resources and services.